Showing default

OTTER PUP 2, 64537

Orbit data source: Space-Track

OTTER PUP 2, 64537 is a payload satellite owned by Starfish Space (US) in SSO that was launched on Mon, 23 Jun 2025 UTC via an FALCON 9 launch vehicle from the Air Force Western Test Range (AFWTR). Payload-class satellites include a variety of spacecraft equipped with specific instruments for various scientific and technological missions. These include communications satellites like Starlink; space stations such as the ISS; scientific satellites like the Hubble; Earth observation satellites from companies like Planet Labs, Umbra, and HawkEye 360; GPS; miniature CubeSats for education and research; and military/defense satellites.

Loading next visibility...
Identifier
64537, 2025-135K
Orbit
SSO
Country
Flag of USUS
Related business
Manufacturer
Starfish Space
Mission
Operational Commercial Technology
Bus & Motor
OTTER, EP
Mass
40 kg wet, 39 kg dry
Launch date (UTC)
2025-06-23 (9 months ago)
Launch vehicle
FALCON 9
Launch site
Air Force Western Test Range (AFWTR)
Object type
Payload
Rocket body
Debris
Shape & HBR
Box + 2 Pan, 0.6 m
Radar Cross Section
0.519 m², Medium (>0.1 m² and < 1m²)

Expand to show TLE details & history
Last TLE update: 2 days ago

TLE from 2 days ago
0 OTTER PUP 2
1 64537U 25135K   26071.32055323  .00031328  00000-0  13215-2 0  9991
2 64537  97.4560 187.3301 0004212 145.5378 214.6133 15.23230255 40139
Epoch: 2026-03-12T07:41Z
TLE epoch observation values (Epoch: 2026-03-12T07:41:35.799Z)
Latitude
0.00005°
Longitude
-98.0412°
Altitude
501.582 km
Speed
7.612 km/s
True Right ascension
12h 29m 19s
True Declination
0° 00' 00"
Sunlit
Object was in full shadow at epoch
Visualization orbit readout
Latitude
Unknown
Longitude
Unknown
Altitude
Unknown
Speed
Unknown
Apparent Right ascension
Unknown
Apparent Declination
Unknown
Sunlit
N/A
Visualization observer readout
Local Sidereal Time
10:17:48
Azimuth
Unknown
Elevation
Unknown
Doppler factor
Unknown
Orbital elements
Apogee altitude
495.963 km
Perigee altitude
490.174 km
Semi-major axis
6,871.205 km
Eccentricity
0.00042
Inclination
97.456°
RAAN
187.3301°
Arg. of periapsis
145.5378°
True anomaly
214.5859°
Mean anomaly
214.6133°
Eccentric anomaly
214.5996°
Mean motion
3.8106 °/min
Orbital period
94.47 mins
BSTAR
0.0013215
Loading maneuver chart data...
Computing Atmospheric mass density...
Loading historical data...
Loading historical data...
Loading historical data...
Loading historical data...
Loading historical data...
Loading historical data...
Loading historical data...

Documentation

Showing up to 5 results
|